Regional Weather Roundup
Issued by NWS State College, PA

Home | Current Version | Previous Version | Graphics & Text | Print | Product List | Glossary Off
Versions: 1 2 3 4 5 6 7 8 9 10 11 12 13 14 15 16 17 18 19 20 21 22 23 24 25 26 27 28 29 30 31 32 33 34 35 36 37 38 39 40 41 42 43 44 45 46 47 48 49 50

000
ASUS41 KCTP 240110
RWRCTP

REGIONAL WEATHER ROUNDUP
NATIONAL WEATHER SERVICE STATE COLLEGE PA
800 PM EST THU NOV 23 2017

Note: "fair" indicates few or no clouds below 12,000 feet with no
significant weather and/or obstructions to visibility.

* = STATION THAT DOES NOT REPORT PRECIPITATION /E.G. RAIN...SNOW...ETC/
    THUNDER OR FOG.

PAZ002>004-007>009-013>016-020>023-029>032-240200-
WESTERN PENNSYLVANIA

CITY           SKY/WX    TMP DP  RH WIND       PRES   REMARKS
ERIE           MOCLDY    36  23  59 SW6       30.00R
MEADVILLE      CLOUDY    34  23  64 SW8       29.98S
FRANKLIN*      CLOUDY    34  20  56 SW8       29.99R
NEW CASTLE     CLOUDY    36  23  59 CALM      30.03R
BEAVER COUNTY  NOT AVBL
BUTLER*        CLOUDY    34  21  59 SW5       30.02R
PITTSBURGH INT MOCLDY    37  22  54 SW6       30.01R
PITTSBURGH     CLOUDY    37  19  48 SW7       30.01R
INDIANA*       CLEAR     28  23  80 CALM      30.04S
LATROBE        CLEAR    N/A N/A N/A CALM      30.03R
WASHINGTON CO* CLOUDY    32  24  72 CALM      30.05
$$

PAZ004>006-010>012-017>019-024>028-033>037-041-042-045-046-049>053-240200-
CENTRAL PENNSYLVANIA

CITY           SKY/WX    TMP DP  RH WIND       PRES   REMARKS
BRADFORD       CLOUDY    31  20  63 SW7       29.95R
DUBOIS         MOCLDY    30  19  63 SW5       29.97R
CLEARFIELD     CLEAR     31  20  63 SW5       29.99R
JOHNSTOWN      CLEAR     31  19  61 W9        29.96S
ALTOONA        CLEAR     33  19  56 CALM      29.99S
STATE COLLEGE  CLEAR     30  19  64 SW5       30.00S
WILLIAMSPORT   CLOUDY    35  22  58 CALM      30.02R
SELINSGROVE    CLEAR     27  24  89 CALM      30.03S
FT INDIANTOWN  CLEAR     28  23  80 CALM      30.03R
CAPITAL CITY   CLEAR     32  23  69 CALM      30.03S
HARRISBURG     PTCLDY    32  25  75 N3        30.03S
YORK           CLEAR     28  24  85 CALM      30.02F
$$

PAZ038>040-043-044-047-048-054-055-060>062-067>071-240200-
EASTERN PENNSYLVANIA

CITY           SKY/WX    TMP DP  RH WIND       PRES   REMARKS
SCRANTON       CLOUDY    32  21  64 CALM      30.00S
MOUNT POCONO   CLEAR     26  18  71 NW7       29.95S
ALLENTOWN      CLEAR     35  18  49 W3        30.02F
QUAKERTOWN*    CLEAR     28  23  80 CALM      30.03S
READING        CLEAR     33  23  66 CALM      30.02F
LANCASTER      PTCLDY    33  24  69 CALM      30.03F
COATESVILLE    CLEAR     32  21  64 CALM      30.03S
POTTSTOWN      CLEAR     28  20  71 CALM      30.04F
BLUE BELL      CLEAR     28  23  80 CALM      30.05S
DOYLESTOWN     CLEAR     31  18  58 CALM      30.02F
WILLOW GROVE   NOT AVBL
NORTH PHILA    CLEAR     35  21  56 W3        30.05F
PHILADELPHIA   PTCLDY    37  21  52 W7        30.05F
$$




USA.gov is the U.S. government's official web portal to all federal, state and local government web resources and services.